Location: Muck Cross
(36.7179°N, 78.3678°W)
Time: 12:41:38
(UTC+00:00)

Vanguard 1 - Visible Passes

Search period start: 26 March 2023 00:00
Search period end: 05 April 2023 00:00
Orbit: 649 x 3832 km, 34.3° (Epoch: 25 March)

Date Brightness Start Highest point End Pass type
(mag) Time Alt. Az. Time Alt. Az. Time Alt. Az.
26 Mar 12.2 00:19:39 10° W 00:39:33 67° SSW 00:48:47 18° SE visible
26 Mar 12.4 02:49:03 10° W 03:00:17 27° SW 03:01:29 26° SW visible
27 Mar 12.2 00:41:07 10° W 01:00:08 59° SSW 01:08:23 21° SE visible
27 Mar 12.8 03:11:32 10° W 03:20:05 19° SW 03:21:05 19° SW visible
28 Mar 12.3 01:02:38 10° WNW 01:20:32 49° SW 01:28:01 23° SSE visible
28 Mar 13.1 03:35:40 10° WSW 03:39:47 12° WSW 03:40:43 12° SW visible
29 Mar 12.4 01:24:17 10° WNW 01:40:43 40° SW 01:47:39 22° SSE visible
30 Mar 12.6 01:46:12 10° W 02:00:43 31° SW 02:07:19 19° S visible
30 Mar 12.8 23:38:03 10° WNW 23:59:36 61° SSW 00:12:38 10° SE visible
31 Mar 12.8 02:08:35 10° W 02:20:33 23° SW 02:27:01 15° SSW visible
31 Mar 12.9 23:59:33 10° WNW 00:20:05 52° SW 00:32:40 10° SE visible
01 Apr 13.1 02:32:01 10° W 02:40:16 16° WSW 02:46:39 10° SSW visible
02 Apr 13.0 00:21:10 10° WNW 00:40:22 43° SW 00:52:28 10° SSE visible
03 Apr 13.0 00:43:01 10° W 01:00:27 35° SW 01:11:54 10° SSE visible
04 Apr 13.2 01:05:19 10° W 01:20:22 27° SW 01:30:51 10° S visible
